• In Moldova, Republic
  • List of Countries
  • For 7 days
  • Water Temperature
  • Satellite Maps
  • Weather Map
  • Weather Widgets
  • user-avatar
    Login

    Hourly Weather Konstantyna

    Today, 28 February, Tuesday

    Time Temperature Precipitation Wind Pressure Humidity
    00:00 +7°C° 0 mm 1 mps 709 mmHg 84%
    01:00 +7°C° 0 mm 1 mps 708 mmHg 83%
    02:00 +6°C° 0 mm 2 mps 708 mmHg 81%
    03:00 +6°C° 0 mm 2 mps 708 mmHg 79%
    04:00 +6°C° 0 mm 2 mps 708 mmHg 79%
    05:00 +5°C° 0 mm 2 mps 708 mmHg 78%
    06:00 +5°C° 0 mm 2 mps 708 mmHg 77%
    07:00 +8°C° 0 mm 2 mps 709 mmHg 68%
    08:00 +12°C° 0 mm 2 mps 709 mmHg 58%
    09:00 +15°C° 0 mm 2 mps 710 mmHg 48%
    10:00 +16°C° 0 mm 2 mps 710 mmHg 43%
    11:00 +18°C° 0 mm 2 mps 710 mmHg 38%
    12:00 +20°C° 0 mm 2 mps 710 mmHg 32%
    13:00 +20°C° 0 mm 2 mps 710 mmHg 34%
    14:00 +20°C° 0 mm 3 mps 709 mmHg 36%
    15:00 +20°C° 0 mm 3 mps 709 mmHg 38%
    16:00 +17°C° 0 mm 2 mps 709 mmHg 51%
    17:00 +14°C° 0 mm 2 mps 708 mmHg 64%
    18:00 +11°C° 0 mm 1 mps 708 mmHg 77%
    19:00 +9°C° 0 mm 1 mps 708 mmHg 80%
    20:00 +8°C° 0 mm 1 mps 709 mmHg 83%
    21:00 +7°C° 0 mm 1 mps 709 mmHg 86%
    22:00 +7°C° 0 mm 1 mps 709 mmHg 87%
    23:00 +7°C° 0 mm 1 mps 709 mmHg 88%

    Tomorrow, 1 March, Wednesday

    Time Temperature Precipitation Wind Pressure Humidity
    00:00 +7°C° 0 mm 1 mps 709 mmHg 89%
    01:00 +7°C° 0 mm 1 mps 709 mmHg 91%
    02:00 +6°C° 0 mm 1 mps 709 mmHg 93%
    03:00 +6°C° 0 mm 1 mps 709 mmHg 95%
    04:00 +6°C° 0 mm 1 mps 709 mmHg 95%
    05:00 +6°C° 0 mm 1 mps 709 mmHg 95%
    06:00 +6°C° 0 mm 1 mps 710 mmHg 96%
    07:00 +9°C° 0 mm 1 mps 711 mmHg 84%
    08:00 +12°C° 0 mm 1 mps 711 mmHg 73%
    09:00 +15°C° 0 mm 1 mps 712 mmHg 62%
    10:00 +16°C° 0 mm 1 mps 713 mmHg 57%
    11:00 +17°C° 0 mm 2 mps 713 mmHg 53%
    12:00 +18°C° 0 mm 2 mps 713 mmHg 49%
    13:00 +18°C° 0 mm 2 mps 713 mmHg 50%
    14:00 +18°C° 0 mm 2 mps 712 mmHg 51%
    15:00 +18°C° 0 mm 2 mps 712 mmHg 52%
    16:00 +15°C° 0 mm 2 mps 712 mmHg 64%
    17:00 +12°C° 0 mm 2 mps 712 mmHg 76%
    18:00 +10°C° 0 mm 1 mps 712 mmHg 89%
    19:00 +9°C° 0 mm 1 mps 712 mmHg 91%
    20:00 +8°C° 0 mm 1 mps 712 mmHg 94%
    21:00 +7°C° 0 mm 1 mps 712 mmHg 97%
    22:00 +7°C° 0 mm 1 mps 712 mmHg 96%
    23:00 +8°C° 0 mm 1 mps 712 mmHg 96%

    Day after tomorrow, 2 March, Thursday

    Time Temperature Precipitation Wind Pressure Humidity
    00:00 +8°C° 0 mm 1 mps 712 mmHg 95%
    01:00 +8°C° 0 mm 1 mps 712 mmHg 95%
    02:00 +8°C° 0 mm 1 mps 711 mmHg 94%
    03:00 +8°C° 0 mm 1 mps 711 mmHg 93%
    04:00 +8°C° 0 mm 1 mps 711 mmHg 91%
    05:00 +7°C° 0 mm 1 mps 711 mmHg 89%
    06:00 +7°C° 0 mm 1 mps 711 mmHg 87%
    07:00 +10°C° 0 mm 1 mps 712 mmHg 73%
    08:00 +14°C° 0 mm 1 mps 712 mmHg 59%
    09:00 +18°C° 0 mm 1 mps 713 mmHg 46%
    10:00 +18°C° 0 mm 2 mps 713 mmHg 40%
    11:00 +20°C° 0 mm 2 mps 713 mmHg 35%
    12:00 +23°C° 0 mm 2 mps 713 mmHg 29%
    13:00 +23°C° 0 mm 2 mps 712 mmHg 30%
    14:00 +23°C° 0 mm 2 mps 712 mmHg 32%
    15:00 +23°C° 0 mm 2 mps 711 mmHg 33%
    16:00 +18°C° 0 mm 2 mps 711 mmHg 48%
    17:00 +15°C° 0 mm 2 mps 710 mmHg 63%
    18:00 +11°C° 0 mm 1 mps 710 mmHg 78%
    19:00 +11°C° 0 mm 1 mps 710 mmHg 81%
    20:00 +10°C° 0 mm 1 mps 710 mmHg 84%
    21:00 +10°C° 0 mm 1 mps 710 mmHg 87%
    22:00 +10°C° 0 mm 1 mps 710 mmHg 86%
    23:00 +10°C° 0 mm 1 mps 710 mmHg 84%

    3 March, Friday

    Time Temperature Precipitation Wind Pressure Humidity
    00:00 +10°C° 0 mm 1 mps 709 mmHg 83%
    01:00 +10°C° 0 mm 1 mps 709 mmHg 79%
    02:00 +10°C° 0 mm 1 mps 708 mmHg 76%
    03:00 +9°C° 0 mm 2 mps 708 mmHg 72%
    04:00 +8°C° 0 mm 2 mps 708 mmHg 69%
    05:00 +8°C° 0 mm 2 mps 708 mmHg 66%
    06:00 +8°C° 0 mm 2 mps 707 mmHg 62%
    07:00 +12°C° 0 mm 2 mps 708 mmHg 55%
    08:00 +15°C° 0 mm 2 mps 708 mmHg 47%
    09:00 +18°C° 0 mm 3 mps 708 mmHg 39%
    10:00 +20°C° 0 mm 3 mps 708 mmHg 34%
    11:00 +22°C° 0 mm 4 mps 708 mmHg 29%
    12:00 +25°C° 0 mm 4 mps 708 mmHg 25%
    13:00 +25°C° 0 mm 4 mps 707 mmHg 25%
    14:00 +25°C° 0 mm 4 mps 707 mmHg 26%
    15:00 +25°C° 0 mm 4 mps 706 mmHg 26%
    16:00 +21°C° 0 mm 3 mps 706 mmHg 32%
    17:00 +18°C° 0 mm 3 mps 705 mmHg 38%
    18:00 +15°C° 0 mm 2 mps 705 mmHg 45%
    19:00 +14°C° 0 mm 2 mps 705 mmHg 45%
    20:00 +13°C° 0 mm 2 mps 705 mmHg 46%
    21:00 +12°C° 0 mm 2 mps 705 mmHg 47%
    22:00 +12°C° 0 mm 2 mps 705 mmHg 50%
    23:00 +10°C° 0 mm 2 mps 705 mmHg 53%

    4 March, Saturday

    Time Temperature Precipitation Wind Pressure Humidity
    00:00 +9°C° 0 mm 2 mps 705 mmHg 55%
    01:00 +9°C° 0 mm 2 mps 705 mmHg 57%
    02:00 +9°C° 0 mm 1 mps 705 mmHg 59%
    03:00 +9°C° 0 mm 1 mps 704 mmHg 60%
    04:00 +8°C° 0 mm 1 mps 704 mmHg 64%
    05:00 +8°C° 0 mm 1 mps 704 mmHg 68%
    06:00 +7°C° 0 mm 1 mps 704 mmHg 72%
    07:00 +11°C° 0 mm 1 mps 705 mmHg 61%
    08:00 +14°C° 0 mm 1 mps 705 mmHg 49%
    09:00 +19°C° 0 mm 1 mps 706 mmHg 38%
    10:00 +20°C° 0 mm 3 mps 705 mmHg 33%
    11:00 +22°C° 0 mm 4 mps 705 mmHg 29%
    12:00 +25°C° 0 mm 5 mps 704 mmHg 24%
    13:00 +25°C° 0 mm 5 mps 704 mmHg 26%
    14:00 +23°C° 0 mm 5 mps 703 mmHg 27%
    15:00 +23°C° 0 mm 5 mps 702 mmHg 29%
    16:00 +21°C° 0 mm 5 mps 701 mmHg 33%
    17:00 +18°C° 0 mm 4 mps 700 mmHg 38%
    18:00 +15°C° 0 mm 4 mps 700 mmHg 43%
    19:00 +15°C° 0.1 mm 4 mps 700 mmHg 42%
    20:00 +14°C° 0.1 mm 5 mps 700 mmHg 42%
    21:00 +14°C° 0.1 mm 6 mps 700 mmHg 42%
    22:00 +13°C° 0.2 mm 5 mps 701 mmHg 50%
    23:00 +12°C° 0.2 mm 5 mps 701 mmHg 58%

    5 March, Sunday

    Time Temperature Precipitation Wind Pressure Humidity
    00:00 +11°C° 0.2 mm 4 mps 702 mmHg 66%
    01:00 +10°C° 0.7 mm 4 mps 702 mmHg 73%
    02:00 +9°C° 0.7 mm 3 mps 702 mmHg 80%
    03:00 +7°C° 0.7 mm 3 mps 702 mmHg 87%
    04:00 +7°C° 1 mm 3 mps 702 mmHg 87%
    05:00 +7°C° 1 mm 2 mps 702 mmHg 87%
    06:00 +6°C° 1 mm 2 mps 702 mmHg 87%
    07:00 +7°C° 0.4 mm 2 mps 702 mmHg 83%
    08:00 +8°C° 0.4 mm 3 mps 702 mmHg 79%
    09:00 +8°C° 0.4 mm 3 mps 702 mmHg 75%
    10:00 +9°C° 0.5 mm 3 mps 702 mmHg 74%
    11:00 +8°C° 0.5 mm 4 mps 702 mmHg 73%
    12:00 +8°C° 0.5 mm 4 mps 701 mmHg 72%
    13:00 +8°C° 0.5 mm 4 mps 701 mmHg 71%
    14:00 +10°C° 0.5 mm 4 mps 701 mmHg 71%
    15:00 +9°C° 0.5 mm 5 mps 701 mmHg 70%
    16:00 +8°C° 0.9 mm 4 mps 701 mmHg 77%
    17:00 +7°C° 0.9 mm 4 mps 701 mmHg 84%
    18:00 +7°C° 0.9 mm 3 mps 702 mmHg 91%
    19:00 +7°C° 0.6 mm 3 mps 702 mmHg 91%
    20:00 +6°C° 0.6 mm 4 mps 702 mmHg 92%
    21:00 +6°C° 0.6 mm 4 mps 703 mmHg 93%
    22:00 +6°C° 2.9 mm 4 mps 703 mmHg 94%
    23:00 +6°C° 2.9 mm 5 mps 702 mmHg 95%
    Show more